This is the latest recevied weather packets stored in our database for station/object KF4UQS-14. If no packets are shown the sender has not sent any weather packets the latest 10 day(s).
| Time | Temp. | Humidity | Pressure | Rain* | Wind** | Luminosity | Snow |
|---|---|---|---|---|---|---|---|
| 1778309452 | 13.89° C | 88% | 1015.2 hPa | 0 mm | - | 0 W/m² | - |
| 1778309150 | 13.89° C | 87% | 1015.1 hPa | 0 mm | - | 0 W/m² | - |
| 1778308848 | 13.89° C | 87% | 1015.3 hPa | 0 mm | - | 0 W/m² | - |
| 1778308544 | 13.89° C | 87% | 1015.2 hPa | 0 mm | - | 0 W/m² | - |
| 1778308241 | 13.89° C | 86% | 1015.3 hPa | 0 mm | - | 0 W/m² | - |
| 1778307938 | 14.44° C | 85% | 1015.5 hPa | 0 mm | - | 0 W/m² | - |
| 1778307636 | 14.44° C | 85% | 1015.8 hPa | 0 mm | - | 0 W/m² | - |
| 1778307332 | 13.89° C | 85% | 1015.6 hPa | 0 mm | - | 0 W/m² | - |
| 1778307029 | 13.89° C | 85% | 1015.7 hPa | 0 mm | - | 0 W/m² | - |
| 1778306727 | 13.89° C | 85% | 1015.8 hPa | 0 mm | - | 0 W/m² | - |
| 1778306422 | 13.89° C | 84% | 1015.9 hPa | 0 mm | - | 0 W/m² | - |
| 1778306118 | 13.89° C | 85% | 1015.7 hPa | 0 mm | - | 0 W/m² | - |
| 1778305814 | 13.89° C | 84% | 1015.9 hPa | 0 mm | - | 0 W/m² | - |
| 1778305511 | 13.89° C | 84% | 1015.9 hPa | 0 mm | - | 0 W/m² | - |
| 1778305209 | 13.89° C | 84% | 1015.8 hPa | 0 mm | - | 0 W/m² | - |
| 1778304907 | 13.89° C | 85% | 1015.9 hPa | 0 mm | - | 0 W/m² | - |
| 1778304604 | 13.89° C | 84% | 1015.9 hPa | 0 mm | - | 0 W/m² | - |
| 1778304301 | 13.33° C | 84% | 1015.7 hPa | 0 mm | - | 0 W/m² | - |
| 1778303999 | 13.33° C | 85% | 1015.9 hPa | 0 mm | - | 0 W/m² | - |
| 1778303697 | 13.33° C | 86% | 1016.2 hPa | 0 mm | - | 0 W/m² | - |
| 1778303394 | 12.78° C | 87% | 1016.3 hPa | 0 mm | - | 0 W/m² | - |
| 1778303090 | 12.78° C | 88% | 1016 hPa | 0 mm | - | 0 W/m² | - |
| 1778302787 | 12.22° C | 90% | 1015.8 hPa | 0 mm | - | 0 W/m² | - |
| 1778302484 | 11.67° C | 91% | 1015.9 hPa | 0 mm | - | 0 W/m² | - |
| 1778302181 | 11.67° C | 93% | 1016 hPa | 0 mm | - | 0 W/m² | - |
* Rain latest hour (hover to see other rain measurements)
** Current wind speed in m/s (hover to see current wind gust speed)